Location: Chuathbaluk
(61.5726°N, 159.2454°W)
Time: 15:11:35
(UTC+00:00)

ITAMSAT 1 - Pass Details

Date: 24 January 2021
Orbit: 784 x 796 km, 98.9° (Epoch: 01 March)

Event Time Altitude Azimuth Distance (km) Brightness Sun altitude
Rises 04:38:37 0° 184° (S) 3,273 11.1 -15.5°
Reaches altitude 10° 04:41:04 10° 191° (SSW) 2,347 10.4 -15.8°
Maximum altitude 04:45:57 41° 262° (W) 1,128 9.0 -16.4°
Drops below altitude 10° 04:50:52 10° 333° (NNW) 2,358 10.3 -17.0°
Sets 04:53:20 0° 340° (NNW) 3,291 11.0 -17.3°
